www.pogodaiklimat.ru

Погода и климат >> Архив погоды >> Казахстан >> Жосалы


ПОГОДА в Жосалы

  • Прогноз погоды в Жосалы
  • Монитор погоды в Жосалы
  • Климат города

АРХИВ ПОГОДЫ в Жосалы

Время (UTC), дата Ветер
(напр.,м/с)
 
Видим.   Явления Облачность Т
(С)
Тd
(С)
f
(%)
Тe
(С)
Тes
(С)
Комфортность P
(гПа)
Po
(гПа)
Тmin
(С)
Tmax
(С)
R
(мм)
R24
(мм)
S
(см)
09 11.08 СЗ 15-20
{20}
50 км 4/3 1000 м
[Cu med, cong Ac cast]
+26.5 +7.4 30 +26 +26 жарко 1011.7 999.9
12 11.08 СЗ 15-19
{20}
50 км 4/0
[Ac cast Ci sp]
+26.9 +5.9 26 +26 +26 жарко 1011.8 1000.0
15 11.08 СЗ 14-18
{19}
50 км 3/0
[Ac cuf]
+24.8 +4.5 27 +24 +24 комфорт 1012.5 1000.7 +27.5
18 11.08 СЗ 5
{18}
н/о ясно +18.0 +4.6 41 +18 +18 1014.4 1002.3 +27.5
21 11.08 штиль 0 н/о ясно +14.5 +5.6 55 +14 +14 1014.5 1002.3
00 12.08 З 5 н/о 3/0
[Ci sp]
+14.2 +5.3 55 +13 +13 1014.1 1001.9
03 12.08 З 6 50 км ясно +19.3 +3.4 35 +19 +21 1014.1 1002.1
06 12.08 С 7 50 км ясно +28.8 +9.3 30 +29 +33 жарко 1014.0 1002.4 +13.8
09 12.08 СЗ 10 50 км ясно +32.2 +6.2 20 +30 +31 жарко 1013.0 1001.5
12 12.08 СЗ 11 50 км 6/6 1000 м
[Cu hum]
+32.1 +7.7 22 +31 +31 жарко 1012.4 1000.9
15 12.08 СЗ 5 50 км 3/3 600 м
[Sc diur, vesp]
+30.6 +8.1 25 +30 +30 жарко 1012.4 1000.8 +34.0
18 12.08 С 3 н/о ясно +25.0 +9.3 37 +26 +26 жарко 1013.4 1001.6 +34.0
21 12.08 С 3 н/о ясно +22.8 +8.5 40 +24 +24 комфорт 1013.7 1001.8
00 13.08 С 2 н/о 3/0
[Ci fib]
+20.1 +7.1 43 +22 +22 комфорт 1013.7 1001.7
03 13.08 СВ 6 50 км 3/0
[Ci fib]
+22.3 +5.6 34 +23 +24 комфорт 1014.9 1002.9
06 13.08 В 8 50 км 3/0
[Ci fib]
+30.4 +7.3 24 +29 +32 жарко 1015.1 1003.4 +19.5
09 13.08 ЮВ 9 50 км 3/0
[Ci fib]
+32.1 +5.5 19 +30 +31 жарко 1013.9 1002.4
12 13.08 В 7 50 км 3/0
[Ci fib]
+33.0 +4.6 17 +31 +32 жарко 1013.1 1001.6
15 13.08 В 2 50 км ясно +30.2 +4.3 19 +28 +28 жарко 1013.0 1001.4 +33.5
18 13.08 СВ 2 н/о ясно +25.2 +6.8 31 +25 +25 комфорт 1013.8 1002.0 +33.5
21 13.08 СВ 1 н/о ясно +19.6 +2.9 33 +21 +21 комфорт 1013.4 1001.4
00 14.08 СВ 2 н/о ясно +17.5 +1.3 34 +18 +18 1013.6 1001.5
03 14.08 В 3 50 км ясно +20.8 +0.2 25 +21 +24 комфорт 1014.2 1002.2
06 14.08 СВ 6 50 км 3/0
[Ci sp]
+30.1 +1.1 15 +27 +32 жарко 1013.5 1001.9 +16.4
09 14.08 В 6 50 км 3/0
[Ci sp]
+33.6 -1.4 11 +30 +35 жарко 1011.7 1000.3
12 14.08 СВ 7 50 км 4/0
[Ci sp]
+34.0 -1.2 11 +30 +32 жарко 1011.1 999.7
15 14.08 СВ 8 20 км 6/4 600 м
[Sc Ac cast Ci sp]
+30.6 +0.6 15 +28 +28 жарко 1009.4 997.8 +34.5
18 14.08 СЗ 4 н/о 4/0
[Ac cast Ci sp]
+24.8 +3.4 25 +24 +24 комфорт 1010.5 998.7 +34.5
21 14.08 С 3 н/о ясно +22.7 +4.1 30 +23 +23 комфорт 1009.8 997.9
00 15.08 С 2 н/о 3/0
[Ac cast]
+21.0 +4.1 33 +22 +22 комфорт 1010.3 998.3
03 15.08 З 1 50 км 3/0
[Ac cast]
+23.2 +4.5 30 +23 +26 комфорт 1010.9 999.1
06 15.08 СЗ 6 50 км ясно +34.0 +2.3 14 +31 +36 жарко 1010.9 999.5 +19.6
09 15.08 СЗ 9 50 км 3/0
[Ac cast]
+35.7 +1.3 11 +32 +33 жарко 1010.3 998.9
12 15.08 З 10 50 км 8/4 1000 м
[Cu hum Ac cast Ci]
+36.5 +2.5 12 +33 +33 жарко 1009.7 998.3
15 15.08 СЗ 8 20 км 8/4 600 м
[Sc diur, vesp Ci]
+32.2 +6.1 20 +30 +30 жарко 1010.4 999.0 +37.3
18 15.08 СЗ 5 н/о 4/0
[Ci sp]
+27.5 +7.1 27 +27 +27 жарко 1011.4 999.7 +37.3
21 15.08 СЗ 5 н/о ясно +24.2 +7.6 35 +25 +25 комфорт 1012.0 1000.2
00 16.08 СЗ 3 н/о ясно +21.0 +7.7 42 +23 +23 комфорт 1012.9 1001.0
03 16.08 СЗ 5 50 км ясно +23.6 +7.3 35 +24 +26 комфорт 1014.4 1002.5
06 16.08 С 8 50 км ясно +28.9 +10.4 32 +29 +32 жарко 1015.3 1003.6 +19.5
09 16.08 С 10 50 км ясно +30.6 +6.1 21 +29 +30 жарко 1015.3 1003.6
12 16.08 С 13-16
{16}
50 км ясно +30.7 +3.2 17 +28 +28 жарко 1015.1 1003.4
15 16.08 С 8
{16}
50 км ясно +28.3 +3.4 20 +27 +27 жарко 1015.7 1004.0 +32.3
18 16.08 С 4 н/о ясно +23.5 +4.3 29 +23 +23 комфорт 1016.7 1004.8 +32.3
21 16.08 С 3 н/о ясно +19.2 +3.6 36 +20 +20 1016.7 1004.6
00 17.08 С 3 н/о ясно +18.0 +3.8 39 +18 +18 1016.6 1004.5
03 17.08 СВ 4 50 км ясно +22.7 +4.1 30 +23 +25 комфорт 1017.0 1005.0
06 17.08 СВ 1 50 км ясно +27.0 +5.3 25 +26 +41 жарко 1016.7 1004.9 +17.5
09 17.08 С 7 50 км ясно +30.1 +4.3 19 +28 +32 жарко 1014.7 1003.0
12 17.08 СВ 12-15
{15}
50 км ясно +31.0 +3.4 17 +29 +29 жарко 1012.9 1001.3
15 17.08 С 7
{15}
20 км ясно +29.5 +4.5 20 +28 +28 жарко 1012.1 1000.5 +32.0
18 17.08 СЗ 4 н/о ясно +24.2 +4.6 28 +24 +24 комфорт 1011.6 999.8 +32.0
21 17.08 С 6 н/о ясно +22.9 +5.1 31 +23 +23 комфорт 1010.6 998.7
00 18.08 СВ 4 н/о ясно +20.0 +6.2 41 +21 +21 комфорт 1010.0 998.0
03 18.08 СВ 7 50 км 3/0
[Ci sp]
+23.6 +6.2 33 +24 +25 комфорт 1009.8 998.0

 

Местоположение метеостанции Жосалы (Кызылординская область, Казахстан): широта 45.50 долгота 64.08 высота над уровнем моря 103 м.

В архиве по умолчанию представлена погода в Жосалы за последнюю неделю. Архивные данные за месяц целиком и за предыдущие месяцы, начиная с января 2011 года, Вы можете получить, выбрав интересующий диапазон дат из раскрывающегося списка и нажав кнопку "Ввод!".


*Определитесь, кто Вы:
робот инопланетянин человек

Внимание! Время в таблицах - всемирное. Для получения местного времени необходимо прибавить поправку, которая в Жосалы равна 6 ч.

Смотрите также архив погоды в соседних городах и на ближайших метеорологических станциях:

Погода в Акае (Кызылординская область, Казахстан) (64 км)
Погода в Жалагаше (Кызылординская область, Казахстан) (66 км)
Погода в Караке (Кызылординская область, Казахстан) (99 км)
Погода в Кызылорде (Кызылординская область, Казахстан) (133 км)
Погода в Тасбугете (Кызылординская область, Казахстан) (140 км)
Погода в Казалинске (Кызылординская область, Казахстан) (155 км)
Погода в Ширик-Рабате (Кызылординская область, Казахстан) (184 км)
Погода в Каукее (Кызылординская область, Казахстан) (189 км)
Погода в Акбакае (Жамбылская область, Казахстан) (228 км)
Погода в Кульжамбае (Карагандинская область, Казахстан) (232 км)

Пояснения к столбцам:

Ветер - указаны скорость ветра в м/с - средняя за 10 мин, порывы в срок и между сроками (в фигурных скобках) и направление, откуда дует ветер: С - северный, СВ - северо-восточный, В - восточный, ЮВ - юго-восточный, Ю - южный, ЮЗ - юго-западный, З - западный, СЗ - северо-западный.
Видимость - горизонтальная дальность видимости в метрах или километрах. При видимости от 1 до 10 км при отсутствии осадков обычно наблюдается дымка, при ухудшении видимости до 1 км и менее - туман. В сухую погоду видимость может ухудшаться дымом, пылью или мглою.
Явления - указаны атмосферные явления, наблюдавшиеся в срок или в последний час перед сроком; фигурными скобками обозначены явления, наблюдавшиеся между сроками (за 1-3 часа до срока); квадратными скобками обозначены град или гололедные отложения с указанием их диаметра в мм.
Облачность - указаны через наклонную черту общая и нижняя облачность в баллах и высота нижней границы облаков в метрах; квадратными скобками обозначены формы облаков: Ci - перистые, Cs - перисто-слоистые, Cc - перисто-кучевые, Ac - высококучевые, As - высокослоистые, Sc - слоисто-кучевые, Ns - слоисто-дождевые, Cu - кучевые, Cb - кучево-дождевые. Подробнее классификацию облаков см. в Атласе облаков (PDF).
T - Температура воздуха - температура, измеренная на высоте 2 м над землей.
Td - Температура точки росы - температура, при понижении до которой содержащийся в воздухе водяной пар достигнет насыщения.
f - Относительная влажность воздуха - влажноcть воздуха, измеренная на высоте 2 м над землей.
Te - Эффективная температура - температура, которую ощущает одетый по сезону человек в тени. Характеристика душности погоды. При расчете учитывается влияние влажности воздуха и скорости ветра на теплоощущения человека.
Tes - Эффективная температура на солнце - температура, которую ощущает человек, с поправкой на солнечный нагрев. Характеристика знойности погоды. Зависит от высоты солнца над горизонтом, облачности и скорости ветра. Ночью, в пасмурную погоду, а также при ветре 12 м/с и более поправка равна нулю.
P - Атмосферное давление - приведенное к уровню моря атмосферное давление.
Po - Атмосферное давление - измеренное на уровне метеостанции атмосферное давление.
Tmin - Минимальная температура - минимум температуры воздуха на высоте 2 м над землей.
Tmax - Максимальная температура - максимум температуры воздуха на высоте 2 м над землей.
R - Количество осадков - Количество выпавших осадков за период времени, мм. При наведении курсора мыши на число - период времени, за который выпало указанное количество осадков.
R24 - Количество осадков - Количество выпавших осадков за 24 часа, мм.
S - Снежный покров - Высота снежного покрова, см. При наведении курсора мыши на число - состояние снежного покрова и степень покрытия местности в баллах.